Location: Ermatingen
(47.6706°N, 9.0857°E)
Time: 13:39:20
(UTC+00:00)

Daily predictions for brighter satellites

Satellite Brightness Start Highest point End
(mag) Time Altitude Azimuth Time Altitude Azimuth Time Altitude Azimuth
Cosmos 1241 Rocket 4.4 19:58:01 10° SSW 20:04:07 69° ESE 20:10:21 10° NE
BREEZE-M DEB 4.3 20:05:55 10° W 20:10:20 73° S 20:21:48 10° E
Cosmos 1633 Rocket 4.5 20:07:00 10° NNE 20:10:36 24° ENE 20:14:11 10° SE
NOSS 2-3 (D) 3.6 20:08:33 10° SW 20:12:13 68° NW 20:16:03 10° NE
USA 186 1.0 20:11:32 10° SSE 20:13:34 46° ENE 20:15:32 10° N
Okean-O 2.6 20:10:15 10° SSE 20:14:37 90° ESE 20:19:01 10° NNW
CZ-4 R/B 3.6 20:11:52 10° SW 20:14:52 22° W 20:17:55 10° NW
SL-08 R/B 4.5 20:13:49 10° N 20:19:59 84° E 20:26:05 10° S
Helios 1A Rocket 2.9 20:18:57 10° N 20:22:01 57° WNW 20:25:05 10° SSW
USA 215 4.5 20:18:46 10° ENE 20:24:48 41° N 20:30:50 10° WNW
Cosmos 1420 Rocket 4.2 20:20:20 10° NNW 20:25:29 60° ENE 20:30:22 11° SE
ADEOS 4.4 20:20:34 10° S 20:25:35 49° W 20:30:39 10° NNW
SL-08 R/B 3.5 20:21:02 10° N 20:25:37 72° WNW 20:30:10 10° SSW
Cosmos 1238 4.2 20:25:55 10° S 20:29:21 79° E 20:32:25 10° N
NOSS 2-3 (C) 3.3 20:26:27 10° SW 20:29:49 68° NW 20:33:26 10° NE
Cosmos 2344 3.6 20:25:15 10° SSW 20:33:03 55° ESE 20:39:59 10° NE
Cosmos 1500 Rocket 4.1 20:29:08 10° NNW 20:33:21 55° W 20:37:31 10° S
Cosmos 1703 2.9 20:32:58 10° SSW 20:36:07 73° W 20:39:17 10° N
Ariane Rocket 3.2 20:31:59 11° SSE 20:36:47 61° ENE 20:41:47 10° N
USA 276 2.7 20:37:20 10° SSW 20:39:03 20° SE 20:40:56 10° E
Spot 2 Rocket 4.3 20:34:11 10° S 20:39:05 49° W 20:44:02 10° NNW
IRS-1C Rocket 4.3 20:34:29 11° SSE 20:39:25 64° ENE 20:44:38 10° N
CZ-4B R/B 2.9 20:37:35 12° SSE 20:41:07 68° ENE 20:45:08 10° N
Cosmos 1538 Rocket 4.3 20:37:13 10° SSW 20:42:23 72° WNW 20:47:40 10° NNE
Cosmos 2315 Rocket 4.4 20:36:53 10° SSE 20:42:44 45° E 20:48:35 10° NNE
Iridium 4 Rocket 3.4 20:38:13 10° S 20:43:20 70° E 20:48:01 10° N
Okean O Rocket 2.5 20:39:18 10° S 20:43:30 46° W 20:47:45 10° NNW
Terra 3.9 20:40:09 10° SW 20:43:50 23° W 20:47:33 10° NW
Cosmos 1833 Rocket 3.1 20:40:13 10° NNW 20:45:46 59° WSW 20:51:06 11° S
USA 59 Rocket -0.2 20:42:39 10° SSW 20:46:13 39° SE 20:49:10 10° NE
Meteor 1-13 Rocket 4.4 20:41:12 10° S 20:47:06 72° E 20:53:02 10° NNE
Cosmos 923 Rocket 4.0 20:43:41 10° S 20:48:50 61° ESE 20:53:58 10° NNE
NOSS 2-1 (D) 3.5 20:47:26 10° SSW 20:51:05 36° SE 20:54:03 10° ENE
Cosmos 1470 Rocket 4.3 20:47:18 10° N 20:51:30 40° ENE 20:54:40 16° SE
CZ-4B R/B 3.6 20:47:02 13° SSE 20:51:36 75° ENE 20:56:51 10° NNW
Cosmos 2112 Rocket 4.4 20:51:46 11° S 20:56:26 43° ESE 21:01:18 10° NE
Cosmos 1328 Rocket 3.5 20:53:51 11° S 20:58:03 71° E 21:02:22 10° NNE
Cosmos 1953 2.3 20:54:57 10° NNW 20:58:29 65° W 21:01:29 14° S
S3M 4.0 20:54:36 10° S 21:00:42 76° E 21:06:53 10° NNE
GP-B 3.2 20:57:31 10° N 21:01:54 78° W 21:06:09 11° S
Cosmos 883 Rocket 4.5 21:00:21 11° S 21:06:15 69° E 21:12:20 10° NNE
Cosmos 1371 Rocket 4.1 21:01:08 10° NNW 21:06:22 67° ENE 21:10:11 18° SE
CZ-2C R/B 2.4 21:05:29 24° SE 21:06:46 45° ENE 21:09:25 10° N
BREEZE-M R/B 3.5 21:03:05 10° WSW 21:07:04 75° SSE 21:15:00 10° ENE
Cosmos 1709 Rocket 4.1 21:02:46 10° N 21:09:12 86° E 21:14:36 15° S
Cosmos 2082 Rocket 2.8 21:03:47 10° NNW 21:09:15 49° NE 21:13:35 16° SE
NOSS 2-1 (C) 3.2 21:07:01 10° SSW 21:10:49 48° SE 21:13:54 10° NE
Cosmos 2278 Rocket 2.2 21:07:48 10° S 21:13:22 62° ESE 21:18:58 10° NNE
Cosmos 494 Rocket 4.0 21:09:00 10° S 21:14:07 62° ESE 21:19:19 10° NNE
Meteor 1-21 4.2 21:12:57 11° S 21:18:18 80° E 21:24:00 10° NNE
Cosmos 1666 Rocket 3.9 21:14:21 10° NNW 21:18:37 60° W 21:21:57 16° S
Helios 1A 4.2 21:16:04 10° NE 21:19:20 24° E 21:20:40 20° SE
Timation 2 Rocket 4.3 21:15:13 14° S 21:20:27 47° ESE 21:26:42 10° NE
Meteor 1-16 Rocket 4.2 21:15:28 10° N 21:21:07 88° ENE 21:25:26 19° S
SPOT 3 Rocket 4.4 21:17:22 11° S 21:22:05 44° W 21:27:02 10° NNW
USA 238 DEB 3.5 21:16:43 10° SW 21:22:49 87° SE 21:29:37 10° NE
USA 238 3.5 21:16:57 10° SW 21:23:02 87° SE 21:29:50 10° NE
Lacrosse 5 rocket 3.4 21:21:52 10° W 21:24:57 26° NNW 21:27:59 10° NE
Cosmos 1943 Rocket 2.2 21:19:34 10° SSW 21:25:14 85° WNW 21:30:54 10° NNE
SL-8 R/B 3.8 21:24:04 10° SW 21:28:36 48° SSE 21:33:09 10° E
ARIANE 5 R/B 4.5 21:27:49 12° ESE 21:30:39 20° ENE 21:33:52 10° NNE
Cosmos 1515 Rocket 3.4 21:36:36 22° S 21:39:18 77° E 21:43:38 10° NNE
Meteor 1-12 Rocket 4.3 21:38:05 10° NNW 21:43:51 87° W 21:47:40 23° S
Okean 2 3.4 21:42:54 20° SSW 21:45:26 69° W 21:49:17 10° N
USA 81 4.2 21:40:58 10° N 21:46:12 63° E 21:49:12 25° SSE
ALOS 2 4.3 21:44:00 15° ESE 21:46:33 24° ENE 21:50:04 10° N
Cosmos 1048 Rocket 4.1 21:43:50 22° S 21:47:04 57° ESE 21:52:16 10° NNE
Cosmos 1624 Rocket 4.4 21:41:56 10° NNW 21:47:09 57° WSW 21:50:25 22° S
Cosmos 1680 Rocket 3.9 21:42:28 10° SW 21:47:36 61° WNW 21:52:46 10° NNE
Cosmos 1633 Rocket 4.2 21:44:19 10° NNW 21:48:20 36° W 21:51:28 15° SSW
COSMOS 2406 3.8 21:45:53 10° NNW 21:51:27 50° NE 21:55:18 19° SE
Cosmos 1400 Rocket 2.5 21:48:04 10° NNW 21:51:44 85° W 21:53:10 35° S
Cosmos 2369 Rocket 3.7 21:50:39 17° ESE 21:52:08 19° E 21:55:55 10° ENE
Cosmos 2056 Rocket 4.1 21:51:17 10° NNW 21:56:08 45° WSW 21:59:06 22° SSW
ARIANE 6 FM1 Upper Stage 3.6 21:58:06 28° SE 21:58:20 28° ESE 22:01:53 10° ENE
IKONOS-2 4.3 21:55:04 10° NNE 21:59:10 76° ESE 22:01:06 30° S
Cosmos 1295 Rocket 4.4 21:53:31 10° N 21:59:38 81° E 22:03:19 26° SSE
Cosmos 1656 Rocket 3.9 21:59:36 26° S 22:02:22 49° ESE 22:07:44 10° NE
USA 215 3.5 22:00:49 10° ESE 22:07:18 70° NNE 22:13:47 10° NW
USA 276 1.6 22:09:04 10° WSW 22:11:29 73° NNW 22:14:10 10° ENE
Okean 1-7 4.1 22:12:10 25° ESE 22:13:19 28° E 22:16:58 10° NNE
Cosmos 2074 Rocket 3.9 22:08:49 10° N 22:15:05 89° E 22:18:40 27° S
NOSS 2-1 (E) 4.1 22:12:26 10° WSW 22:16:03 42° NW 22:19:05 10° NNE
Spot 4 4.1 22:17:54 29° SE 22:20:15 59° ENE 22:25:00 10° N
Cosmos 1328 3.6 22:21:51 46° SE 22:22:34 57° E 22:26:03 10° NNE
NOSS 3-1 (C) 3.4 22:21:45 33° SSE 22:22:59 39° ESE 22:27:56 10° NE
Helios 1B rocket 1.9 22:24:53 49° SSE 22:25:43 82° ENE 22:29:11 10° NNW
USA 308 1.7 22:26:25 73° E 22:26:25 73° E 22:29:54 10° ENE
Lacrosse 4 Rocket 3.2 22:25:39 10° NNW 22:29:16 27° NE 22:32:23 12° E
Cosmos 1812 4.2 22:30:56 10° NW 22:31:08 11° NW 22:31:08 11° NW
USA 59 Rocket 2.0 22:32:22 10° W 22:34:47 19° NW 22:37:00 10° N
Cosmos 1441 Rocket 4.0 22:33:46 25° WSW 22:35:01 35° WNW 22:38:01 10° N
CSL-04 DEB 4.1 22:35:05 46° SE 22:36:03 74° ENE 22:39:42 10° N
Cosmos 1933 Rocket 4.5 22:32:31 10° NNW 22:36:31 38° W 22:38:23 25° SW
ATLAS 5 CENTAUR R/B 0.5 22:37:18 64° E 22:37:18 64° E 22:40:08 10° NE
Okean 3 4.5 22:34:53 20° SW 22:37:07 37° WNW 22:40:53 10° N
Nadezhda 1 Rocket 3.9 22:36:02 29° S 22:39:22 80° E 22:45:39 10° N
COSMOS 2455 3.9 22:38:34 24° SE 22:40:14 27° ESE 22:45:11 10° NE
BREEZE-M DEB (TANK) 3.4 22:33:40 10° WNW 22:40:19 60° NNE 22:42:17 17° E
Meteor 1-24 Rocket 4.3 22:41:09 29° SSE 22:43:55 48° E 22:49:41 10° NNE
Cosmos 468 4.5 22:42:09 27° SSW 22:45:06 85° WNW 22:50:28 10° NNE
GEOS 3 Rocket 4.3 22:40:59 13° ESE 22:45:32 53° NE 22:50:47 10° NNW
Exosat Rocket 4.2 22:44:00 28° S 22:47:24 75° ESE 22:55:31 10° NNE
Cosmos 2082 Rocket 3.4 22:48:16 10° NW 22:53:04 30° WSW 22:55:23 22° SW
Cosmos 1452 Rocket 3.8 22:48:38 10° NNW 22:53:46 54° WSW 22:55:52 33° SSW
Helios 1A 4.3 22:50:28 10° N 22:54:01 32° WNW 22:56:22 18° WSW
MetOp-A 4.2 22:52:47 29° ESE 22:54:06 40° ENE 22:57:39 10° N
ACS3 Solar Sail 2.8 22:49:23 10° NNE 22:54:17 29° E 22:56:47 21° SE
Cosmos 967 Rocket 4.5 22:50:18 21° SSW 22:54:53 86° SE 23:01:24 10° NE
Cosmos 1869 4.4 22:52:55 10° NNE 22:55:56 27° ENE 22:56:49 24° E
SL-4 R/B 1.2 22:55:57 72° SW 22:56:13 82° SSE 22:59:23 10° ENE
Cosmos 2278 Rocket 4.1 22:53:04 10° WSW 22:57:52 27° NW 23:02:41 10° N
Cosmos 614 Rocket 4.3 22:57:55 23° SW 23:01:01 61° WNW 23:06:04 10° NNE
Lacrosse 5 rocket 4.0 22:59:53 10° NW 23:02:21 18° N 23:04:48 10° NE
ARIANE 5 R/B 3.0 23:05:10 36° SSW 23:06:36 51° W 23:10:55 10° NNW
Meteor 2-5 Rocket 4.0 23:04:24 32° SSE 23:07:02 63° E 23:12:53 10° NNE
CZ-2C R/B 4.5 23:06:06 10° N 23:10:39 49° WNW 23:13:10 24° SW
SL-8 R/B 3.6 23:06:00 10° W 23:10:45 85° N 23:15:31 10° E
SL-8 Rocket 4.0 23:04:56 10° N 23:11:06 76° E 23:14:17 30° SSE
SAR-Lupe-2 3.1 23:15:20 72° SSE 23:15:37 85° ENE 23:18:51 10° NNW
CZ-2C R/B 3.0 23:12:19 10° NNE 23:17:41 78° ESE 23:19:49 36° S
CZ-2C R/B 2.7 23:16:25 32° SSE 23:18:54 73° ENE 23:24:11 10° N
CZ-3B R/B 4.1 23:16:36 28° SSW 23:20:20 60° SE 23:45:09 10° NE
Meteor 2-15 4.4 23:14:19 10° N 23:20:26 89° W 23:23:25 32° S
Cosmos 1733 Rocket 3.6 23:16:41 10° NNW 23:20:48 45° W 23:22:03 34° SW
Cosmos 1833 4.4 23:16:33 10° NNW 23:22:13 71° ENE 23:25:36 25° SE
ALOS 2 3.3 23:21:23 33° SW 23:22:40 41° W 23:26:50 10° NNW
SL-12 R/B(2) 4.4 23:15:35 14° SW 23:22:45 84° NW 23:32:39 10° NE
Cosmos 1707 Rocket 3.9 23:22:47 36° SW 23:24:24 59° WNW 23:28:46 10° N
Cosmos 2341 Rocket 3.9 23:19:29 10° N 23:25:46 89° WSW 23:28:53 32° S
Cosmos 2228 Rocket 3.0 23:26:00 42° SSW 23:27:26 80° W 23:31:52 10° N
Cosmos 1703 Rocket 3.9 23:26:16 38° SE 23:27:34 52° E 23:31:52 10° NNE
Meteor 2-13 Rocket 4.4 23:27:03 32° S 23:30:06 88° E 23:36:14 10° N
Cosmos 1356 Rocket 3.2 23:27:11 10° NNW 23:31:14 89° E 23:32:18 48° SSE
USA 290 2.4 23:28:11 10° NNW 23:31:10 55° W 23:31:10 55° W
Landsat 5 4.2 23:28:00 10° NNE 23:31:24 33° E 23:32:04 31° ESE
COSMOS 2406 4.3 23:30:36 10° NW 23:35:28 30° WSW 23:37:19 24° SW
Cosmos 2369 Rocket 2.3 23:32:23 27° SW 23:35:29 74° WNW 23:41:07 10° NNE
Cosmos 1862 Rocket 4.4 23:34:20 28° WSW 23:36:01 40° WNW 23:40:06 10° N
ARIANE 6 FM1 Upper Stage 3.6 23:34:00 15° WSW 23:37:10 44° NW 23:41:07 10° NNE
Cosmos 1315 Rocket 3.1 23:33:45 10° NNW 23:37:25 47° W 23:38:04 41° SW
Cosmos 2297 3.8 23:36:39 28° SW 23:39:47 79° WNW 23:45:32 10° NNE
USA 276 2.7 23:41:47 10° WNW 23:44:22 49° N 23:47:11 10° E
USA 308 4.0 23:45:33 10° W 23:48:29 35° N 23:52:19 10° NE
Okean 1-7 4.4 23:48:24 20° WSW 23:50:14 28° WNW 23:53:55 10° NNW
USA 215 3.5 23:47:35 29° S 23:50:31 45° SW 23:56:46 10° WNW
